DEFOG EDHL-EDXW

Flight info

Callsign DEFOG
Flight time N/A
Altitude
Route
Aircraft VISSION

Departure

Time 2026-05-05 16:52
Airport Lübeck Blankensee Airport (EDHL)

Arrival

Time N/A
Airport Westerland Sylt Airport (EDXW)
Time Latitude Longitude Altitude Speed Heading
2026-05-05 16:46 53.80560 10.70442 52 ft 0 kts 187°
2026-05-05 16:47 53.80558 10.70448 52 ft 0 kts 49°
2026-05-05 16:47 53.80561 10.70452 52 ft 7 kts 21°
2026-05-05 16:47 53.80600 10.70432 52 ft 9 kts 301°
2026-05-05 16:47 53.80578 10.70370 52 ft 4 kts 227°
2026-05-05 16:48 53.80545 10.70337 52 ft 13 kts 173°
2026-05-05 16:48 53.80495 10.70389 52 ft 6 kts 147°
2026-05-05 16:48 53.80461 10.70427 52 ft 6 kts 146°
2026-05-05 16:48 53.80432 10.70461 52 ft 3 kts 144°
2026-05-05 16:49 53.80430 10.70464 52 ft 0 kts 144°
2026-05-05 16:50 53.80419 10.70476 52 ft 6 kts 144°
2026-05-05 16:51 53.80371 10.70533 52 ft 19 kts 145°
2026-05-05 16:51 53.80300 10.70679 53 ft 21 kts 84°
2026-05-05 16:51 53.80426 10.71371 68 ft 103 kts 72°
2026-05-05 16:51 53.80699 10.72802 396 ft 151 kts 65°
2026-05-05 16:52 53.81711 10.73649 758 ft 196 kts 352°
2026-05-05 16:52 53.82558 10.72083 1058 ft 188 kts 274°
2026-05-05 16:52 53.82190 10.69903 1072 ft 214 kts 250°
2026-05-05 16:52 53.81623 10.67356 1064 ft 231 kts 250°
2026-05-05 16:53 53.81127 10.64926 1305 ft 203 kts 252°
2026-05-05 16:53 53.80728 10.62757 1527 ft 189 kts 253°
2026-05-05 16:53 53.80501 10.60600 1543 ft 187 kts 284°
2026-05-05 16:53 53.81069 10.58649 1558 ft 187 kts 297°
2026-05-05 16:54 53.81772 10.56686 1595 ft 202 kts 305°
2026-05-05 16:54 53.82602 10.54794 1562 ft 201 kts 306°
2026-05-05 16:54 53.83477 10.52777 1634 ft 234 kts 306°
2026-05-05 16:54 53.84514 10.50479 1987 ft 254 kts 307°
2026-05-05 16:55 53.85576 10.48114 1874 ft 239 kts 307°
2026-05-05 16:55 53.86547 10.45938 1762 ft 229 kts 307°
2026-05-05 16:55 53.87519 10.43813 1522 ft 228 kts 308°
2026-05-05 16:55 53.88507 10.41714 1403 ft 233 kts 308°
2026-05-05 16:56 53.89479 10.39609 1427 ft 219 kts 307°
2026-05-05 16:56 53.90414 10.37516 1488 ft 239 kts 307°
2026-05-05 16:56 53.91382 10.35340 1498 ft 223 kts 307°
2026-05-05 16:56 53.92307 10.33258 1537 ft 222 kts 307°
2026-05-05 16:57 53.93258 10.31115 1580 ft 234 kts 306°
2026-05-05 16:57 53.94252 10.28847 1718 ft 243 kts 306°
2026-05-05 16:57 53.95235 10.26586 1756 ft 242 kts 306°
2026-05-05 16:57 53.96182 10.24365 1687 ft 223 kts 306°
2026-05-05 16:58 53.96589 10.23427 1665 ft 219 kts 306°